Reidsville, NC

7:59 AM EST on December 15, 2017 (GMT -0500)
Reidsville

Weather History for KSIF - January, 2012

Change the Weather History Date:

Saturday, January 21, 2012

  Actual Average (KGSO) Record (KGSO)
Temperature  
Mean Temperature 42 °F -  
Max Temperature 47 °F 45 °F 73 °F (1927)
Min Temperature 37 °F 25 °F -8 °F (1985)
Degree Days  
Heating Degree Days 23    
Moisture  
Dew Point 42 °F    
Average Humidity 99    
Maximum Humidity 100    
Minimum Humidity 91    
Precipitation  
Precipitation 0.06 in - - ()
Sea Level Pressure  
Sea Level Pressure 29.97 in    
Wind  
Wind Speed 1 mph (West)    
Max Wind Speed 13 mph    
Max Gust Speed 16 mph    
Visibility 6 miles    
Events Rain    
Averages and records for this station are not official NWS values.
T = Trace of Precipitation, MM = Missing Value Source: NWS Daily Summary

Daily Weather History Graph

Daily Weather History Graph

Search for Another Location

Airport or City:

Trip Planner

Search our weather history database for the weather conditions in past years. The results will help you decide how hot, cold, wet, or windy it might be!

Date:

Astronomy

Jan. 21, 2012 Rise Set
Actual Time 7:28 AM EST 5:33 PM EST
Civil Twilight 7:00 AM EST 6:01 PM EST
Nautical Twilight 6:29 AM EST 6:32 PM EST
Astronomical Twilight 5:58 AM EST 7:03 PM EST
Moon 5:56 AM EST (1/21) 4:08 PM EST (1/21)
Length of Visible Light 11h 00m
Length of Day
10h 05m
Waning Crescent, 3% of the Moon is Illuminated
Jan 21
Waning Crescent
Jan 23
New
Jan 30
First Quarter
Feb 7
Full
Feb 14
Last Quarter

Hourly Weather History & Observations

Time (EST) Temp. Windchill Dew Point Humidity Pressure Visibility Wind Dir Wind Speed Gust Speed Precip Events Conditions
12:15 AM 39.4 °F - 39.2 °F 99% 30.10 in 3.0 mi Calm Calm - N/A Rain Rain
12:35 AM 39.4 °F - 39.2 °F 99% 30.08 in 3.0 mi Calm Calm - N/A   Drizzle
12:55 AM 39.4 °F 37.2 °F 39.2 °F 99% 30.09 in 4.0 mi North 3.5 mph - N/A Rain Light Rain
1:15 AM 39.2 °F 37.0 °F 39.2 °F 100% 30.08 in 4.0 mi NNE 3.5 mph - N/A Rain Light Rain
1:35 AM 39.2 °F - 39.2 °F 100% 30.06 in 2.5 mi Calm Calm - N/A   Drizzle
1:55 AM 39.2 °F - 39.2 °F 100% 30.06 in 2.0 mi Calm Calm - N/A   Light Drizzle
2:15 AM 39.2 °F - 39.2 °F 100% 30.04 in 2.0 mi Calm Calm - N/A Rain Light Rain
2:35 AM 39.2 °F - 39.2 °F 100% 30.02 in 2.0 mi Calm Calm - N/A Rain Light Rain
2:55 AM 39.2 °F - 39.0 °F 99% 30.00 in 2.5 mi Calm Calm - N/A   Overcast
3:15 AM 38.7 °F - 38.5 °F 99% 30.00 in 1.8 mi Calm Calm - N/A   Overcast
3:35 AM 38.5 °F - 38.3 °F 99% 29.98 in 1.8 mi Calm Calm - N/A   Overcast
3:55 AM 38.3 °F - 38.3 °F 100% 29.97 in 2.5 mi Calm Calm - N/A   Overcast
4:15 AM 37.9 °F - 37.9 °F 100% 29.95 in 2.0 mi Calm Calm - N/A   Overcast
4:35 AM 37.8 °F - 37.8 °F 100% 29.95 in 3.0 mi Calm Calm - N/A   Overcast
4:55 AM 37.9 °F - 37.9 °F 100% 29.94 in 3.0 mi Calm Calm - N/A   Overcast
5:15 AM 37.9 °F - 37.9 °F 100% 29.94 in 2.0 mi Calm Calm - N/A   Overcast
5:35 AM 37.9 °F - 37.9 °F 100% 29.94 in 1.5 mi Calm Calm - N/A   Light Drizzle
5:55 AM 37.9 °F - 37.9 °F 100% 29.94 in 1.5 mi Calm Calm - N/A   Drizzle
6:15 AM 37.9 °F - 37.9 °F 100% 29.92 in 1.8 mi Calm Calm - N/A Rain Light Rain
6:35 AM 37.9 °F - 37.9 °F 100% 29.92 in 1.8 mi Calm Calm - N/A   Overcast
6:55 AM 37.8 °F - 37.8 °F 100% 29.93 in 1.8 mi Calm Calm - N/A Rain Light Rain
7:15 AM 37.9 °F - 37.9 °F 100% 29.93 in 1.8 mi Calm Calm - N/A Rain Light Rain
7:35 AM 38.1 °F - 38.1 °F 100% 29.94 in 1.8 mi Calm Calm - N/A Rain Light Rain
7:55 AM 38.3 °F - 38.3 °F 100% 29.93 in 1.5 mi Calm Calm - 0.03 in Rain Heavy Rain
8:15 AM 38.3 °F - 38.3 °F 100% 29.91 in 1.8 mi Calm Calm - 0.02 in Rain Light Rain
8:35 AM 38.3 °F 35.9 °F 38.3 °F 100% 29.95 in 3.0 mi North 3.5 mph - 0.02 in Rain Light Rain
8:55 AM 38.5 °F 36.1 °F 38.5 °F 100% 29.96 in 3.0 mi North 3.5 mph - 0.03 in Rain Rain
9:15 AM 38.3 °F - 38.3 °F 100% 29.96 in 2.0 mi Calm Calm - N/A   Drizzle
9:35 AM 38.3 °F - 38.3 °F 100% 29.96 in 1.8 mi Calm Calm - N/A Rain Rain
9:55 AM 38.3 °F 34.8 °F 38.3 °F 100% 29.95 in 1.5 mi SSE 4.6 mph - N/A Rain Light Rain
10:15 AM 38.7 °F 36.3 °F 38.7 °F 100% 29.94 in 5.0 mi South 3.5 mph - N/A   Overcast
10:35 AM 39.0 °F - 39.0 °F 100% 29.94 in 7.0 mi Calm Calm - N/A   Light Drizzle
10:55 AM 39.7 °F 36.5 °F 39.7 °F 100% 29.93 in 7.0 mi SSW 4.6 mph - N/A   Overcast
11:15 AM 40.6 °F 38.6 °F 40.6 °F 100% 29.93 in 7.0 mi SW 3.5 mph - N/A   Drizzle
11:35 AM 41.4 °F 39.4 °F 41.4 °F 100% 29.92 in 5.0 mi SSW 3.5 mph - N/A Rain Light Rain
11:55 AM 41.9 °F 39.0 °F 41.9 °F 100% 29.88 in 4.0 mi South 4.6 mph - N/A Rain Light Rain
12:15 PM 43.0 °F 36.4 °F 43.0 °F 100% 29.91 in 4.0 mi NW 12.7 mph 16.1 mph N/A Rain Light Rain
12:35 PM 43.7 °F 41.1 °F 43.7 °F 100% 29.88 in 10.0 mi West 4.6 mph - N/A   Overcast
12:55 PM 44.4 °F 41.2 °F 44.4 °F 100% 29.87 in 10.0 mi WSW 5.8 mph - N/A   Overcast
1:15 PM 45.0 °F 41.8 °F 44.8 °F 99% 29.88 in 10.0 mi WSW 5.8 mph - N/A   Overcast
1:35 PM 45.3 °F 42.3 °F 45.1 °F 99% 29.88 in 10.0 mi West 5.8 mph - N/A   Mostly Cloudy
1:55 PM 46.0 °F - 45.7 °F 99% 29.88 in 10.0 mi Calm Calm - N/A   Mostly Cloudy
2:15 PM 46.6 °F - 46.0 °F 98% 29.87 in 10.0 mi Calm Calm - N/A   Overcast
2:35 PM 47.1 °F - 46.2 °F 97% 29.88 in 10.0 mi SW 4.6 mph - N/A   Overcast
2:55 PM 47.3 °F - 46.4 °F 97% 29.89 in 10.0 mi SSW 4.6 mph - N/A   Overcast
3:15 PM 47.3 °F - 46.0 °F 95% 29.91 in 10.0 mi SW 4.6 mph - N/A   Overcast
3:55 PM 47.5 °F - 46.4 °F 96% 29.91 in 10.0 mi Calm Calm - N/A   Overcast
4:15 PM 47.7 °F - 46.4 °F 95% 29.93 in 10.0 mi Calm Calm - N/A   Overcast
4:35 PM 47.7 °F - 46.4 °F 95% 29.94 in 10.0 mi Calm Calm - N/A   Overcast
5:15 PM 47.7 °F - 46.6 °F 96% 29.97 in 10.0 mi Calm Calm - N/A   Overcast
5:35 PM 47.5 °F - 46.6 °F 97% 29.98 in 7.0 mi Calm Calm - N/A   Overcast
5:55 PM 47.3 °F - 46.6 °F 97% 30.00 in 10.0 mi Calm Calm - N/A   Overcast
6:15 PM 47.3 °F - 46.4 °F 97% 30.02 in 7.0 mi Calm Calm - N/A   Overcast
6:35 PM 46.9 °F - 46.4 °F 98% 30.03 in 7.0 mi Calm Calm - N/A   Overcast
6:55 PM 46.9 °F - 46.4 °F 98% 30.05 in 10.0 mi NNE 3.5 mph - N/A   Overcast
7:15 PM 47.1 °F - 46.6 °F 98% 30.06 in 10.0 mi Calm Calm - N/A   Overcast
7:35 PM 46.9 °F - 46.4 °F 98% 30.07 in 10.0 mi Calm Calm - N/A   Overcast
7:55 PM 46.9 °F - 46.2 °F 97% 30.07 in 10.0 mi NNE 4.6 mph - N/A   Overcast
8:15 PM 46.6 °F - 45.7 °F 97% 30.07 in 10.0 mi ENE 5.8 mph - N/A   Overcast
8:35 PM 45.5 °F 41.8 °F 44.1 °F 95% 30.08 in 10.0 mi ENE 6.9 mph - N/A   Overcast
8:55 PM 44.8 °F 41.6 °F 42.8 °F 93% 30.09 in 10.0 mi ENE 5.8 mph - N/A   Overcast
9:15 PM 43.9 °F 39.9 °F 41.9 °F 93% 30.11 in 10.0 mi NE 6.9 mph - N/A   Overcast
9:35 PM 42.4 °F 39.6 °F 39.9 °F 91% 30.14 in 10.0 mi NE 4.6 mph - N/A   Overcast
9:55 PM 41.2 °F 36.0 °F 38.3 °F 89% 30.14 in 10.0 mi ENE 8.1 mph 18.4 mph N/A   Overcast
10:15 PM 39.9 °F 35.1 °F 37.4 °F 91% 30.16 in 10.0 mi NE 6.9 mph - N/A   Overcast
10:35 PM 39.4 °F 33.8 °F 36.9 °F 91% 30.18 in 10.0 mi NE 8.1 mph - N/A   Overcast
10:55 PM 38.7 °F 34.3 °F 36.5 °F 92% 30.18 in 10.0 mi ENE 5.8 mph - N/A   Overcast
11:15 PM 37.8 °F 34.2 °F 35.8 °F 93% 30.19 in 10.0 mi ENE 4.6 mph - N/A   Overcast
11:35 PM 37.4 °F 34.9 °F 35.2 °F 92% 30.21 in 10.0 mi ENE 3.5 mph - N/A   Overcast
11:55 PM 37.4 °F 32.8 °F 35.2 °F 92% 30.21 in 10.0 mi ENE 5.8 mph - N/A   Overcast